ADT,Max TemperatureF,Mean TemperatureF,Min TemperatureF,Max Dew PointF,MeanDew PointF,Min DewpointF,Max Humidity, Mean Humidity, Min Humidity, Max Sea Level PressureIn, Mean Sea Level PressureIn, Min Sea Level PressureIn, Max VisibilityMiles, Mean VisibilityMiles, Min VisibilityMiles, Max Wind SpeedMPH, Mean Wind SpeedMPH, Max Gust SpeedMPH,PrecipitationIn, CloudCover, Events, WindDirDegrees
2013-10-1,60,58,55,,,,,,,,,,,,,22,11,32,0.00,,,56
2013-10-2,66,60,55,,,,,,,,,,,,,20,14,24,0.00,,,287
2013-10-3,62,60,56,,,,,,,,,,,,,25,16,,0.00,,,285
2013-10-4,59,56,53,,,,,,,,,,,,,34,21,46,0.00,,,296
2013-10-5,58,55,52,,,,,,,,,,,,,21,15,,0.00,,,307
2013-10-6,56,52,49,,,,,,,,,,,,,25,18,31,0.00,,,318
2013-10-7,57,52,47,,,,,,,,,,,,,20,10,,0.00,,,144
2013-10-8,64,59,54,,,,,,,,,,,,,26,20,34,0.00,,,202
2013-10-9,57,53,48,,,,,,,,,,,,,25,17,26,0.00,,,316
2013-10-10,60,52,45,,,,,,,,,,,,,23,10,29,0.00,,,234
2013-10-11,62,54,47,,,,,,,,,,,,,18,8,24,0.00,,,313
2013-10-12,50,48,45,,,,,,,,,,,,,23,16,29,0.00,,,22
2013-10-13,51,47,43,,,,,,,,,,,,,20,11,,0.00,,,351
2013-10-14,58,49,40,,,,,,,,,,,,,15,10,,0.00,,,271
2013-10-15,59,54,48,,,,,,,,,,,,,22,11,,0.00,,,285
2013-10-16,55,50,45,,,,,,,,,,,,,15,8,,0.00,,,121
2013-10-17,62,58,53,,,,,,,,,,,,,26,18,33,0.00,,,181
2013-10-18,58,56,54,,,,,,,,,,,,,15,9,18,0.00,,,232
2013-10-19,59,54,50,,,,,,,,,,,,,25,15,33,0.00,,,278
2013-10-20,59,54,48,,,,,,,,,,,,,15,6,,0.00,,,158
2013-10-21,52,48,43,,,,,,,,,,,,,26,18,33,0.00,,,280
2013-10-22,55,50,45,,,,,,,,,,,,,18,10,,0.00,,,216
2013-10-23,58,54,48,,,,,,,,,,,,,24,16,31,0.00,,,307
2013-10-24,50,46,42,,,,,,,,,,,,,20,14,23,0.00,,,297
2013-10-25,52,46,40,,,,,,,,,,,,,22,15,28,0.00,,,256
2013-10-26,49,44,38,,,,,,,,,,,,,18,11,24,0.00,,,255
2013-10-27,55,49,43,,,,,,,,,,,,,22,12,30,0.00,,,221
2013-10-28,48,44,40,,,,,,,,,,,,,22,12,29,0.00,,,252
2013-10-29,45,42,38,,,,,,,,,,,,,20,16,25,0.00,,,303
2013-10-30,43,39,35,,,,,,,,,,,,,13,8,,0.00,,,255
2013-10-31,47,41,35,,,,,,,,,,,,,17,10,,0.00,,,248